This is the latest recevied weather packets stored in our database for station/object KC1OEK-13. If no packets are shown the sender has not sent any weather packets the latest 10 day(s).
| Time | Temp. | Humidity | Pressure | Rain* | Wind** | Luminosity | Snow |
|---|---|---|---|---|---|---|---|
| 1778008936 | 26.11° C | 47% | 1009.5 hPa | 0 mm | - | 552 W/m² | - |
| 1778008634 | 25.56° C | 47% | 1009.4 hPa | 0 mm | - | 544 W/m² | - |
| 1778008332 | 25.56° C | 46% | 1009.5 hPa | 0 mm | - | 577 W/m² | - |
| 1778008028 | 25.56° C | 44% | 1009.5 hPa | 0 mm | - | 623 W/m² | - |
| 1778007425 | 26.11° C | 44% | 1009.7 hPa | 0 mm | - | 597 W/m² | - |
| 1778005605 | 26.11° C | 45% | 1010 hPa | 0 mm | - | 655 W/m² | - |
| 1778004998 | 26.11° C | 46% | 1009.9 hPa | 0 mm | - | 699 W/m² | - |
| 1778002566 | 26.11° C | 47% | 1009.9 hPa | 0 mm | - | 741 W/m² | - |
| 1778002263 | 26.67° C | 47% | 1010.1 hPa | 0 mm | - | 746 W/m² | - |
| 1778001960 | 25.56° C | 45% | 1010.3 hPa | 0 mm | - | 744 W/m² | - |
| 1778001657 | 25.56° C | 44% | 1010.2 hPa | 0 mm | - | 747 W/m² | - |
| 1778001351 | 26.11° C | 47% | 1010.4 hPa | 0 mm | - | 743 W/m² | - |
| 1778000745 | 25.56° C | 47% | 1010.3 hPa | 0 mm | - | 745 W/m² | - |
| 1777999227 | 25° C | 50% | 1010.8 hPa | 0 mm | - | 741 W/m² | - |
| 1777998925 | 25° C | 50% | 1011 hPa | 0 mm | - | 742 W/m² | - |
| 1777998622 | 25° C | 49% | 1010.8 hPa | 0 mm | - | 744 W/m² | - |
| 1777998315 | 24.44° C | 50% | 1011.1 hPa | 0 mm | - | 748 W/m² | - |
| 1777997104 | 24.44° C | 51% | 1011.2 hPa | 0 mm | - | 737 W/m² | - |
| 1777995586 | 24.44° C | 51% | 1011.5 hPa | 0 mm | - | 719 W/m² | - |
| 1777995284 | 23.89° C | 51% | 1011.7 hPa | 0 mm | - | 714 W/m² | - |
| 1777994980 | 22.78° C | 51% | 1011.5 hPa | 0 mm | - | 708 W/m² | - |
| 1777994678 | 22.78° C | 52% | 1011.7 hPa | 0 mm | - | 702 W/m² | - |
| 1777994377 | 22.78° C | 53% | 1011.7 hPa | 0 mm | - | 696 W/m² | - |
| 1777994068 | 23.33° C | 52% | 1012 hPa | 0 mm | - | 686 W/m² | - |
| 1777993766 | 22.78° C | 54% | 1012.3 hPa | 0 mm | - | 676 W/m² | - |
* Rain latest hour (hover to see other rain measurements)
** Current wind speed in m/s (hover to see current wind gust speed)